User: anonymous   Login
Location: Az?znagar
(16.8373°N, 80.5091°E)
Time: 12:28:44
(UTC+00:00)
Language:

Cosmos 1777 Rocket - Orbit

View from above orbital plane
View from above orbital plane
View from above satellite
View from above satellite

Ground track
Ground track

The orbit data is extracted from the following two-line orbital elements,

1 16953U 86070B   22137.45609253  .00000201  00000-0  75908-4 0  9990
2 16953  74.0123 208.2175 0012439 355.5259   4.5781 14.37502975869754
Epoch (UTC): 17 May 2022 10:56:46
Eccentricity: 0.0012439
inclination: 74.0123°
perigee height: 758 km
apogee height: 775 km
right ascension of ascending node: 208.2175°
argument of perigee: 355.5259°
revolutions per day: 14.37502975
mean anomaly at epoch: 4.5781°
orbit number at epoch: 86975

The dashed part of the orbit path shows where the satellite is in the earth's shadow,  

DLR